Hebbronville, TX

7:25 PM CDT on August 25, 2016 (GMT -0500)
Hogg County

Weather History for KHBV - April, 2013

Change the Weather History Date:

Friday, April 12, 2013

  Actual Average (KLRD) Record (KLRD)
Temperature  
Mean Temperature 68 °F 75 °F  
Max Temperature 85 °F 87 °F 103 °F (1986)
Min Temperature 50 °F 63 °F 40 °F (1988)
Degree Days  
Heating Degree Days 0 1  
Month to date heating degree days 12  
Since 1 July heating degree days 925  
Cooling Degree Days 2 11  
Month to date cooling degree days 117  
Year to date cooling degree days 375  
Growing Degree Days 18 (Base 50)    
Moisture  
Dew Point 46 °F    
Average Humidity 52    
Maximum Humidity 80    
Minimum Humidity 18    
Precipitation  
Precipitation 0.00 in 0.04 in 5.55 in (1947)
Month to date precipitation 0.44  
Year to date precipitation 3.40  
Sea Level Pressure  
Sea Level Pressure 29.90 in    
Wind  
Wind Speed 8 mph (ESE)    
Max Wind Speed 20 mph    
Max Gust Speed 26 mph    
Visibility 10 miles    
Events      
T = Trace of Precipitation, MM = Missing Value Source: NWS Daily Summary

Daily Weather History Graph

Daily Weather History Graph

Search for Another Location

Airport or City:

Trip Planner

Search our weather history database for the weather conditions in past years. The results will help you decide how hot, cold, wet, or windy it might be!

Date:

Astronomy

Apr. 12, 2013 Rise Set
Actual Time 7:13 AM CDT 7:58 PM CDT
Civil Twilight 6:49 AM CDT 8:22 PM CDT
Nautical Twilight 6:21 AM CDT 8:50 PM CDT
Astronomical Twilight 5:53 AM CDT 9:18 PM CDT
Moon 8:35 AM CDT (4/12) 10:16 PM CDT (4/12)
Length of Visible Light 13h 32m
Length of Day
12h 44m
Waxing Crescent, 5% of the Moon is Illuminated
Apr 12
Waxing Crescent
Apr 18
First Quarter
Apr 25
Full
May 2
Last Quarter
May 9
New

Hourly Weather History & Observations

Time (CDT) Temp. Dew Point Humidity Pressure Visibility Wind Dir Wind Speed Gust Speed Precip Events Conditions
12:15 AM 59.4 °F 38.1 °F 45% 29.90 in 10.0 mi SE 5.8 mph - N/A   Clear
12:35 AM 58.5 °F 38.3 °F 47% 29.90 in 10.0 mi SE 5.8 mph - N/A   Clear
12:55 AM 57.7 °F 38.5 °F 49% 29.89 in 10.0 mi SE 4.6 mph - N/A   Clear
1:15 AM 57.2 °F 39.6 °F 52% 29.89 in 10.0 mi SE 6.9 mph - N/A   Clear
1:35 AM 56.7 °F 40.3 °F 54% 29.89 in 10.0 mi ESE 4.6 mph - N/A   Clear
1:55 AM 55.9 °F 40.6 °F 56% 29.90 in 10.0 mi SE 4.6 mph - N/A   Clear
2:15 AM 55.4 °F 41.0 °F 58% 29.89 in 10.0 mi SE 4.6 mph - N/A   Clear
2:35 AM 54.9 °F 41.2 °F 60% 29.89 in 10.0 mi SE 4.6 mph - N/A   Clear
2:55 AM 54.3 °F 41.2 °F 61% 29.89 in 10.0 mi SSE 3.5 mph - N/A   Clear
3:15 AM 53.4 °F 40.6 °F 62% 29.89 in 10.0 mi SE 3.5 mph - N/A   Clear
3:35 AM 53.1 °F 40.8 °F 63% 29.88 in 10.0 mi Calm Calm - N/A   Clear
3:55 AM 53.1 °F 41.0 °F 64% 29.89 in 10.0 mi Calm Calm - N/A   Clear
4:15 AM 52.5 °F 40.8 °F 64% 29.89 in 10.0 mi SSE 4.6 mph - N/A   Clear
4:35 AM 52.0 °F 41.2 °F 67% 29.89 in 10.0 mi SSE 4.6 mph - N/A   Clear
4:55 AM 51.1 °F 40.8 °F 68% 29.89 in 10.0 mi South 4.6 mph - N/A   Clear
5:15 AM 50.4 °F 40.6 °F 69% 29.89 in 10.0 mi SSW 4.6 mph - N/A   Clear
5:35 AM 50.5 °F 42.1 °F 73% 29.89 in 10.0 mi SSW 4.6 mph - N/A   Clear
5:55 AM 50.7 °F 43.3 °F 76% 29.89 in 10.0 mi South 3.5 mph - N/A   Clear
6:15 AM 51.6 °F 45.1 °F 79% 29.89 in 10.0 mi South 4.6 mph - N/A   Clear
6:35 AM 51.8 °F 45.7 °F 80% 29.90 in 10.0 mi Calm Calm - N/A   Clear
6:55 AM 51.3 °F 44.8 °F 78% 29.91 in 10.0 mi Calm Calm - N/A   Clear
7:15 AM 51.3 °F 44.6 °F 78% 29.91 in 10.0 mi Calm Calm - N/A   Clear
7:35 AM 51.8 °F 45.3 °F 79% 29.91 in 10.0 mi Calm Calm - N/A   Clear
7:55 AM 52.0 °F 45.1 °F 77% 29.91 in 10.0 mi Calm Calm - N/A   Clear
8:15 AM 54.0 °F 47.5 °F 79% 29.93 in 10.0 mi ENE 3.5 mph - N/A   Clear
8:35 AM 56.8 °F 49.3 °F 76% 29.93 in 10.0 mi East 6.9 mph - N/A   Scattered Clouds
8:55 AM 59.0 °F 51.6 °F 76% 29.94 in 10.0 mi East 6.9 mph - N/A   Overcast
9:15 AM 60.4 °F 53.1 °F 77% 29.95 in 10.0 mi East 9.2 mph - N/A   Overcast
9:35 AM 61.5 °F 53.8 °F 76% 29.96 in 10.0 mi ESE 10.4 mph - N/A   Overcast
9:55 AM 62.4 °F 54.5 °F 75% 29.96 in 10.0 mi ESE 9.2 mph - N/A   Overcast
10:15 AM 64.0 °F 54.1 °F 70% 29.96 in 10.0 mi SE 10.4 mph - N/A   Mostly Cloudy
10:35 AM 65.7 °F 53.2 °F 64% 29.96 in 10.0 mi ESE 9.2 mph - N/A   Scattered Clouds
10:55 AM 67.1 °F 52.5 °F 59% 29.96 in 10.0 mi East 8.1 mph - N/A   Clear
11:15 AM 69.1 °F 51.4 °F 53% 29.96 in 10.0 mi East 12.7 mph 16.1 mph N/A   Clear
11:35 AM 70.9 °F 50.0 °F 48% 29.95 in 10.0 mi East 8.1 mph 17.3 mph N/A   Clear
11:55 AM 72.7 °F 48.7 °F 43% 29.95 in 10.0 mi East 12.7 mph 18.4 mph N/A   Clear
12:15 PM 74.8 °F 47.1 °F 37% 29.95 in 7.0 mi SSE 6.9 mph 18.4 mph N/A   Clear
12:35 PM 75.7 °F 45.0 °F 33% 29.94 in 5.0 mi ESE 13.8 mph 17.3 mph N/A   Haze
12:55 PM 77.4 °F 43.5 °F 30% 29.93 in 10.0 mi SE 5.8 mph 17.3 mph N/A   Clear
1:15 PM 78.8 °F 42.1 °F 27% 29.93 in 10.0 mi ESE 8.1 mph 18.4 mph N/A   Clear
1:35 PM 79.5 °F 41.5 °F 26% 29.91 in 7.0 mi SE 9.2 mph 17.3 mph N/A   Clear
1:55 PM 80.6 °F 40.5 °F 24% 29.90 in 5.0 mi East 13.8 mph 17.3 mph N/A   Haze
2:15 PM 81.5 °F 40.6 °F 23% 29.89 in 10.0 mi East 9.2 mph 18.4 mph N/A   Clear
2:35 PM 82.2 °F 40.6 °F 23% 29.88 in 7.0 mi ESE 15.0 mph 20.7 mph N/A   Clear
2:55 PM 83.5 °F 39.0 °F 21% 29.87 in 10.0 mi East 11.5 mph 21.9 mph N/A   Clear
3:15 PM 84.4 °F 37.8 °F 19% 29.86 in 10.0 mi ESE 16.1 mph 24.2 mph N/A   Clear
3:35 PM 85.1 °F 37.4 °F 18% 29.84 in 10.0 mi SE 13.8 mph 25.3 mph N/A   Clear
3:55 PM 85.5 °F 36.7 °F 18% 29.83 in 10.0 mi East 17.3 mph 21.9 mph N/A   Clear
4:15 PM 84.9 °F 38.1 °F 19% 29.83 in 10.0 mi East 16.1 mph 25.3 mph N/A   Clear
4:35 PM 84.9 °F 39.4 °F 20% 29.83 in 10.0 mi East 15.0 mph 24.2 mph N/A   Clear
4:55 PM 84.7 °F 41.0 °F 21% 29.83 in 10.0 mi East 17.3 mph 25.3 mph N/A   Clear
5:15 PM 84.2 °F 41.9 °F 22% 29.83 in 10.0 mi ESE 15.0 mph 25.3 mph N/A   Clear
5:35 PM 83.3 °F 42.4 °F 24% 29.83 in 10.0 mi East 19.6 mph 25.3 mph N/A   Clear
5:55 PM 82.2 °F 43.3 °F 25% 29.83 in 10.0 mi East 17.3 mph 25.3 mph N/A   Clear
6:15 PM 81.1 °F 43.3 °F 26% 29.84 in 10.0 mi ESE 15.0 mph - N/A   Clear
6:55 PM 78.6 °F 44.6 °F 30% 29.84 in 10.0 mi East 18.4 mph 26.5 mph N/A   Clear
7:15 PM 77.0 °F 45.9 °F 33% 29.84 in 10.0 mi East 18.4 mph 24.2 mph N/A   Clear
7:35 PM 75.2 °F 47.5 °F 37% 29.86 in 10.0 mi East 17.3 mph 24.2 mph N/A   Clear
7:55 PM 73.4 °F 49.3 °F 42% 29.86 in 10.0 mi East 17.3 mph - N/A   Clear
8:15 PM 71.8 °F 50.4 °F 47% 29.86 in 10.0 mi East 15.0 mph 21.9 mph N/A   Clear
8:55 PM 69.4 °F 53.6 °F 57% 29.88 in 10.0 mi East 16.1 mph 24.2 mph N/A   Clear
9:15 PM 68.5 °F 54.5 °F 61% 29.89 in 10.0 mi East 17.3 mph 21.9 mph N/A   Clear
9:35 PM 67.5 °F 54.9 °F 64% 29.90 in 10.0 mi ESE 15.0 mph 21.9 mph N/A   Clear
9:55 PM 66.9 °F 55.2 °F 66% 29.91 in 10.0 mi ESE 13.8 mph 18.4 mph N/A   Clear
10:15 PM 66.6 °F 55.4 °F 67% 29.91 in 10.0 mi ESE 16.1 mph 20.7 mph N/A   Clear
10:35 PM 66.4 °F 55.8 °F 69% 29.91 in 10.0 mi ESE 16.1 mph 20.7 mph N/A   Clear
10:55 PM 66.0 °F 55.8 °F 69% 29.92 in 10.0 mi East 12.7 mph - N/A   Clear
11:15 PM 65.5 °F 56.3 °F 72% 29.92 in 10.0 mi East 10.4 mph - N/A   Clear
11:35 PM 64.9 °F 56.5 °F 74% 29.92 in 10.0 mi East 12.7 mph - N/A   Clear
11:55 PM 64.8 °F 56.7 °F 75% 29.93 in 10.0 mi East 10.4 mph - N/A   Clear